Location: ??
(35.4032°N, 139.3073°E)
Time: 13:08:13
(UTC+00:00)

Cosmos 2278 Rocket - Visible Passes

Search period start: 17 July 2025 00:00
Search period end: 27 July 2025 00:00
Orbit: 838 x 846 km, 71.0° (Epoch: 17 July)

Date Brightness Start Highest point End Pass type
(mag) Time Alt. Az. Time Alt. Az. Time Alt. Az.
17 Jul 5.3 10:55:29 10° W 10:59:22 19° NW 11:03:16 10° NNW visible
17 Jul 5.3 18:07:58 10° NNE 18:11:33 17° NE 18:15:07 10° E visible
18 Jul 5.3 10:40:27 10° WSW 10:44:27 20° WNW 10:48:30 10° N visible
18 Jul 5.2 17:53:14 10° NNE 17:56:39 16° NE 18:00:03 10° E visible
19 Jul 5.3 10:25:25 10° WSW 10:29:34 21° WNW 10:33:44 10° N visible
19 Jul 5.2 17:38:30 10° NNE 17:41:45 15° NE 17:44:58 10° E visible
20 Jul 5.2 17:23:48 10° NNE 17:26:50 14° NE 17:29:52 10° E visible
20 Jul 2.2 19:05:49 10° NNW 19:11:30 76° WSW 19:17:08 10° SSE visible
21 Jul 5.2 17:09:06 10° NNE 17:11:55 14° NE 17:14:44 10° E visible
21 Jul 2.2 18:50:57 10° NNW 18:56:38 80° WSW 19:02:17 10° SSE visible
22 Jul 5.2 16:54:26 10° NNE 16:57:01 13° NE 16:59:35 10° E visible
22 Jul 2.2 18:36:05 10° NNW 18:41:47 84° WSW 18:47:26 10° SSE visible
23 Jul 5.1 16:39:48 10° NNE 16:42:06 12° NE 16:44:24 10° ENE visible
23 Jul 2.2 18:21:13 10° NNW 18:26:55 88° WSW 18:32:34 10° SSE visible
24 Jul 5.1 16:25:12 10° NNE 16:27:12 12° NE 16:29:10 10° ENE visible
24 Jul 2.2 18:06:21 10° NNW 18:12:03 87° ENE 18:17:43 10° SSE visible
25 Jul 5.1 16:10:40 10° NE 16:12:17 11° NE 16:13:52 10° ENE visible
25 Jul 2.2 17:51:29 10° NNW 17:57:12 83° ENE 18:02:51 10° SSE visible
26 Jul 5.1 15:56:18 10° NE 15:57:22 10° NE 15:58:25 10° ENE visible
26 Jul 2.2 17:36:38 10° NNW 17:42:20 79° ENE 17:47:58 10° SSE visible
